Location: Unspecified
(0.0000°N, 0.0000°E)
Time: 20:02:51
(UTC+00:00)

OBJECT H - Visible Passes

Search period start: 16 January 2022 00:00
Search period end: 26 January 2022 00:00
Orbit: 500 x 516 km, 97.4° (Epoch: 16 January)

Date Brightness Start Highest point End Pass type
(mag) Time Alt. Az. Time Alt. Az. Time Alt. Az.
16 Jan ? 18:39:24 10° SE 18:42:43 29° E 18:46:00 10° NNE visible
17 Jan ? 19:57:15 10° SW 19:59:16 14° WSW 20:01:17 10° WNW visible
18 Jan ? 19:39:03 10° SSW 19:42:11 26° WSW 19:45:19 10° NW visible
19 Jan ? 19:21:28 10° S 19:25:06 49° WSW 19:28:42 10° NNW visible
20 Jan ? 19:04:15 10° SSE 19:08:00 82° ENE 19:11:43 10° N visible
21 Jan ? 18:47:21 10° SSE 18:50:53 40° E 18:54:23 10° N visible
22 Jan ? 20:06:48 10° WSW 20:07:23 10° WSW 20:07:58 10° W visible
23 Jan ? 19:47:34 10° SSW 19:50:16 19° WSW 19:52:59 10° NW visible
24 Jan ? 19:29:43 10° SSW 19:33:09 35° WSW 19:36:34 10° NW visible
25 Jan ? 19:12:18 10° S 19:16:01 72° WSW 19:19:43 10° NNW visible
